Location: Zagreb
(45.8000°N, 16.0000°E)
Time: 09:28:07
(UTC+02:00)

X-37B - Pass Details

Date: 29 June 2022
Orbit: 328 x 343 km, 45.0° (Epoch: 12 August)

Event Time Altitude Azimuth Distance (km) Brightness Sun altitude
Rises 22:15:03 0° 243° (WSW) 2,085 4.4 -11.6°
Reaches altitude 10° 22:17:05 10° 237° (WSW) 1,254 3.2 -11.8°
Maximum altitude 22:19:46 44° 163° (SSE) 471 0.6 -12.1°
Enters shadow 22:22:00 14° 92° (E) 1,070 2.4 -12.3°
